QPF
0.01 0.02 0.03 0.04 0.03 0.02 0.03 0.03 0.02 0.02 0.03 0.02 0.01 0.01 0.02 0.02 0.01 0.00 0.00 0.00 0.01 0.01 0.04 0.05 0.06 0.06 0.05 0.04 0.04 0.03 0.02 0.01 0.01 0.01 0.01 0.01 0.01 0.02 0.02 0.03 0.03 0.04 0.04 0.04
0.00 0.01 0.01 0.03 0.03 0.03 0.03 0.03 0.03 0.03 0.02 0.02 0.01 0.01 0.01 0.01 0.01 0.01 0.00 0.00 0.01 0.01 0.01 0.03 0.05 0.05 0.05 0.06 0.07 0.06 0.05 0.04 0.03 0.02 0.01 0.01 0.01 0.01 0.02 0.03 0.03 0.04 0.04 0.04
0.00 0.00 0.01 0.02 0.03 0.03 0.03 0.04 0.04 0.04 0.03 0.02 0.01 0.01 0.00 0.00 0.00 0.00 0.00 0.00 0.00 0.00 0.00 0.01 0.02 0.03 0.04 0.03 0.04 0.04 0.05 0.05 0.04 0.03 0.02 0.02 0.02 0.02 0.03 0.03 0.03 0.03 0.02 0.02
0.00 0.00 0.01 0.02 0.02 0.02 0.03 0.03 0.03 0.04 0.03 0.02 0.01 0.01 0.00 0.00 0.00 0.00 0.00 0.00 0.00 0.00 0.01 0.01 0.01 0.02 0.03 0.03 0.03 0.03 0.03 0.04 0.04 0.04 0.03 0.02 0.03 0.02 0.02 0.02 0.03 0.03 0.03 0.02
0.00 0.00 0.00 0.01 0.01 0.02 0.02 0.02 0.02 0.03 0.03 0.01 0.01 0.00 0.01 0.00 0.00 0.00 0.00 0.00 0.00 0.00 0.01 0.01 0.01 0.02 0.02 0.03 0.03 0.03 0.03 0.02 0.02 0.03 0.03 0.02 0.02 0.02 0.02 0.02 0.02 0.02 0.03 0.03
0.00 0.00 0.01 0.00 0.00 0.02 0.02 0.01 0.02 0.02 0.02 0.02 0.01 0.01 0.00 0.00 0.00 0.00 0.00 0.00 0.00 0.00 0.00 0.01 0.01 0.01 0.02 0.02 0.03 0.04 0.03 0.02 0.02 0.02 0.03 0.02 0.01 0.01 0.01 0.01 0.00 0.01 0.02 0.02
0.01 0.01 0.00 0.00 0.00 0.01 0.02 0.02 0.02 0.02 0.02 0.02 0.01 0.01 0.00 0.00 0.00 0.00 0.00 0.00 0.00 0.00 0.00 0.01 0.01 0.01 0.01 0.01 0.02 0.03 0.04 0.03 0.02 0.02 0.03 0.03 0.02 0.01 0.01 0.01 0.00 0.00 0.00 0.02
0.02 0.01 0.00 0.00 0.00 0.01 0.01 0.01 0.01 0.01 0.01 0.02 0.01 0.00 0.00 0.00 0.00 0.00 0.00 0.00 0.00 0.00 0.01 0.01 0.01 0.01 0.01 0.02 0.02 0.03 0.03 0.03 0.02 0.02 0.03 0.04 0.04 0.02 0.01 0.01 0.01 0.00 0.00 0.01
0.02 0.02 0.01 0.00 0.00 0.00 0.01 0.01 0.01 0.01 0.01 0.01 0.00 0.00 0.00 0.00 0.00 0.00 0.00 0.00 0.00 0.01 0.01 0.01 0.01 0.02 0.02 0.02 0.02 0.02 0.02 0.02 0.02 0.02 0.03 0.03 0.04 0.03 0.02 0.02 0.01 0.01 0.00 0.00
0.02 0.01 0.01 0.01 0.01 0.00 0.00 0.01 0.01 0.01 0.01 0.00 0.00 0.00 0.00 0.00 0.00 0.00 0.00 0.00 0.00 0.00 0.01 0.01 0.01 0.01 0.01 0.02 0.02 0.02 0.02 0.02 0.02 0.02 0.03 0.03 0.03 0.03 0.02 0.02 0.01 0.01 0.00 0.00
0.01 0.01 0.00 0.00 0.00 0.00 0.00 0.00 0.01 0.01 0.01 0.00 0.00 0.00 0.00 0.00 0.00 0.00 0.00 0.00 0.00 0.00 0.01 0.01 0.01 0.01 0.01 0.01 0.01 0.01 0.02 0.03 0.03 0.02 0.03 0.05 0.04 0.03 0.02 0.02 0.01 0.01 0.01 0.00
0.00 0.00 0.01 0.01 0.01 0.01 0.01 0.00 0.00 0.00 0.01 0.01 0.01 0.00 0.00 0.00 0.00 0.00 0.00 0.00 0.00 0.00 0.01 0.01 0.01 0.01 0.01 0.01 0.02 0.02 0.02 0.02 0.03 0.03 0.03 0.04 0.05 0.04 0.03 0.02 0.03 0.02 0.02 0.01
0.00 0.00 0.00 0.01 0.02 0.03 0.02 0.01 0.01 0.01 0.01 0.01 0.01 0.01 0.00 0.00 0.00 0.00 0.00 0.00 0.00 0.01 0.01 0.01 0.01 0.01 0.01 0.01 0.02 0.03 0.02 0.03 0.03 0.03 0.03 0.03 0.04 0.04 0.03 0.02 0.02 0.03 0.02 0.01
0.00 0.00 0.00 0.00 0.01 0.01 0.02 0.02 0.01 0.01 0.01 0.02 0.02 0.01 0.01 0.00 0.00 0.00 0.00 0.00 0.00 0.00 0.01 0.01 0.01 0.01 0.01 0.01 0.02 0.02 0.02 0.02 0.03 0.02 0.02 0.02 0.02 0.03 0.02 0.02 0.01 0.02 0.02 0.02
0.00 0.00 0.00 0.01 0.01 0.00 0.01 0.01 0.01 0.01 0.01 0.01 0.02 0.02 0.01 0.00 0.00 0.00 0.00 0.00 0.00 0.00 0.00 0.00 0.01 0.01 0.01 0.01 0.01 0.01 0.01 0.02 0.02 0.03 0.02 0.02 0.02 0.02 0.02 0.01 0.01 0.01 0.02 0.01
0.00 0.00 0.01 0.01 0.03 0.03 0.02 0.02 0.01 0.01 0.00 0.01 0.01 0.00 0.00 0.00 0.00 0.00 0.00 0.00 0.00 0.00 0.00 0.00 0.01 0.01 0.01 0.00 0.01 0.01 0.01 0.01 0.02 0.02 0.02 0.02 0.01 0.01 0.02 0.02 0.01 0.01 0.01 0.01
0.00 0.00 0.00 0.01 0.01 0.02 0.03 0.03 0.02 0.01 0.01 0.00 0.00 0.00 0.00 0.00 0.00 0.00 0.00 0.00 0.00 0.00 0.00 0.00 0.00 0.00 0.00 0.01 0.01 0.01 0.01 0.01 0.01 0.01 0.01 0.01 0.01 0.01 0.02 0.02 0.01 0.01 0.00 0.01
0.00 0.00 0.00 0.01 0.01 0.02 0.02 0.02 0.01 0.00 0.00 0.00 0.00 0.00 0.00 0.00 0.00 0.00 0.00 0.00 0.00 0.00 0.00 0.00 0.00 0.00 0.00 0.00 0.01 0.01 0.00 0.00 0.00 0.00 0.00 0.00 0.01 0.01 0.01 0.01 0.01 0.01 0.01 0.01
0.00 0.00 0.00 0.01 0.01 0.02 0.02 0.01 0.00 0.00 0.00 0.00 0.00 0.00 0.00 0.00 0.00 0.00 0.00 0.00 0.00 0.00 0.00 0.00 0.00 0.00 0.00 0.00 0.00 0.00 0.00 0.00 0.01 0.01 0.00 0.00 0.00 0.00 0.01 0.01 0.01 0.01 0.01 0.01
0.01 0.01 0.01 0.01 0.01 0.01 0.01 0.00 0.00 0.00 0.00 0.00 0.00 0.00 0.00 0.00 0.00 0.00 0.00 0.00 0.00 0.00 0.00 0.00 0.00 0.00 0.00 0.00 0.00 0.00 0.00 0.00 0.00 0.01 0.01 0.00 0.00 0.01 0.01 0.01 0.01 0.02 0.02 0.02
0.00 0.00 0.01 0.01 0.01 0.00 0.00 0.00 0.00 0.00 0.00 0.00 0.00 0.00 0.00 0.00 0.00 0.00 0.00 0.00 0.00 0.00 0.00 0.00 0.00 0.00 0.00 0.00 0.00 0.00 0.00 0.00 0.00 0.00 0.00 0.00 0.01 0.01 0.01 0.01 0.01 0.01 0.01 0.01
0.00 0.00 0.00 0.01 0.00 0.00 0.00 0.00 0.00 0.00 0.00 0.00 0.00 0.00 0.00 0.00 0.00 0.00 0.00 0.00 0.00 0.00 0.00 0.00 0.00 0.00 0.00 0.00 0.00 0.00 0.00 0.00 0.00 0.00 0.00 0.01 0.01 0.01 0.01 0.01 0.01 0.01 0.01 0.02
0.00 0.01 0.01 0.00 0.00 0.00 0.00 0.00 0.00 0.00 0.00 0.00 0.00 0.00 0.00 0.00 0.00 0.00 0.00 0.00 0.00 0.00 0.00 0.00 0.00 0.00 0.00 0.00 0.00 0.00 0.00 0.00 0.00 0.00 0.00 0.00 0.01 0.01 0.01 0.01 0.01 0.01 0.01 0.01
0.01 0.01 0.01 0.00 0.00 0.00 0.00 0.00 0.00 0.00 0.00 0.00 0.00 0.00 0.00 0.00 0.00 0.00 0.00 0.00 0.00 0.00 0.00 0.00 0.00 0.00 0.00 0.00 0.00 0.00 0.00 0.00 0.00 0.00 0.00 0.00 0.01 0.01 0.01 0.01 0.01 0.01 0.01 0.01
0.02 0.01 0.01 0.01 0.01 0.01 0.01 0.00 0.00 0.00 0.00 0.00 0.00 0.00 0.00 0.00 0.00 0.00 0.00 0.00 0.00 0.00 0.00 0.00 0.00 0.00 0.00 0.00 0.00 0.00 0.00 0.00 0.00 0.00 0.00 0.00 0.01 0.01 0.01 0.01 0.01 0.01 0.01 0.01
0.02 0.02 0.02 0.02 0.02 0.01 0.01 0.01 0.01 0.01 0.01 0.01 0.00 0.00 0.00 0.00 0.00 0.00 0.00 0.00 0.00 0.00 0.00 0.00 0.00 0.00 0.00 0.00 0.00 0.00 0.00 0.00 0.00 0.00 0.00 0.01 0.01 0.01 0.01 0.01 0.01 0.01 0.01 0.01
0.01 0.01 0.02 0.02 0.01 0.01 0.01 0.01 0.01 0.01 0.01 0.01 0.01 0.01 0.00 0.00 0.00 0.00 0.00 0.00 0.00 0.00 0.00 0.00 0.00 0.00 0.00 0.00 0.00 0.00 0.00 0.00 0.01 0.01 0.01 0.01 0.01 0.01 0.01 0.01 0.01 0.01 0.01 0.01
MSLP
1022.69 1022.95 1023.17 1023.35 1023.48 1023.56 1023.58 1023.55 1023.48 1023.39 1023.30 1023.25 1023.24 1023.30 1023.44 1023.64 1023.89 1024.18 1024.49 1024.80 1025.11 1025.42 1025.74 1026.07 1026.42 1026.78 1027.16 1027.53 1027.87 1028.17 1028.40 1028.56 1028.65 1028.69 1028.67 1028.64 1028.60 1028.58 1028.56 1028.56 1028.54 1028.51 1028.44 1028.34
1022.70 1022.82 1022.88 1022.89 1022.85 1022.78 1022.68 1022.57 1022.46 1022.39 1022.35 1022.37 1022.46 1022.62 1022.83 1023.09 1023.37 1023.67 1023.98 1024.29 1024.61 1024.94 1025.29 1025.66 1026.07 1026.51 1026.96 1027.39 1027.79 1028.13 1028.39 1028.57 1028.67 1028.71 1028.70 1028.68 1028.65 1028.63 1028.63 1028.64 1028.64 1028.63 1028.58 1028.50
1022.86 1022.82 1022.69 1022.51 1022.28 1022.05 1021.82 1021.63 1021.49 1021.42 1021.43 1021.51 1021.68 1021.90 1022.18 1022.47 1022.79 1023.10 1023.40 1023.71 1024.03 1024.38 1024.76 1025.18 1025.65 1026.14 1026.65 1027.14 1027.58 1027.96 1028.25 1028.45 1028.57 1028.63 1028.64 1028.63 1028.63 1028.63 1028.65 1028.68 1028.70 1028.71 1028.68 1028.62
1023.09 1022.85 1022.53 1022.15 1021.74 1021.35 1021.00 1020.73 1020.56 1020.49 1020.54 1020.68 1020.90 1021.18 1021.49 1021.82 1022.15 1022.47 1022.78 1023.09 1023.42 1023.79 1024.20 1024.66 1025.17 1025.72 1026.27 1026.81 1027.29 1027.69 1028.01 1028.24 1028.39 1028.47 1028.51 1028.53 1028.55 1028.59 1028.63 1028.69 1028.73 1028.76 1028.75 1028.71
1023.22 1022.80 1022.29 1021.73 1021.17 1020.64 1020.21 1019.88 1019.69 1019.63 1019.70 1019.88 1020.14 1020.46 1020.81 1021.16 1021.50 1021.83 1022.15 1022.47 1022.82 1023.21 1023.66 1024.16 1024.71 1025.29 1025.87 1026.43 1026.94 1027.36 1027.70 1027.96 1028.13 1028.24 1028.32 1028.38 1028.44 1028.51 1028.58 1028.66 1028.73 1028.77 1028.77 1028.74
1023.12 1022.55 1021.89 1021.19 1020.51 1019.91 1019.41 1019.06 1018.87 1018.83 1018.93 1019.14 1019.44 1019.79 1020.16 1020.52 1020.88 1021.21 1021.55 1021.89 1022.27 1022.69 1023.17 1023.71 1024.29 1024.89 1025.49 1026.06 1026.57 1027.01 1027.36 1027.63 1027.82 1027.97 1028.08 1028.18 1028.28 1028.38 1028.49 1028.59 1028.67 1028.72 1028.73 1028.70
1022.70 1022.01 1021.25 1020.48 1019.75 1019.12 1018.62 1018.29 1018.12 1018.11 1018.25 1018.50 1018.82 1019.19 1019.57 1019.95 1020.32 1020.67 1021.03 1021.40 1021.81 1022.27 1022.78 1023.34 1023.93 1024.55 1025.15 1025.71 1026.22 1026.65 1027.00 1027.27 1027.49 1027.66 1027.81 1027.94 1028.08 1028.21 1028.34 1028.45 1028.54 1028.60 1028.61 1028.58
1021.92 1021.18 1020.38 1019.60 1018.89 1018.29 1017.85 1017.57 1017.47 1017.52 1017.70 1017.98 1018.33 1018.71 1019.10 1019.49 1019.87 1020.24 1020.62 1021.02 1021.47 1021.95 1022.49 1023.06 1023.66 1024.27 1024.85 1025.39 1025.88 1026.29 1026.63 1026.90 1027.13 1027.32 1027.49 1027.65 1027.81 1027.97 1028.11 1028.24 1028.33 1028.38 1028.39 1028.36
1020.82 1020.08 1019.32 1018.60 1017.97 1017.47 1017.12 1016.94 1016.93 1017.05 1017.29 1017.61 1017.97 1018.37 1018.76 1019.16 1019.54 1019.93 1020.33 1020.76 1021.23 1021.73 1022.28 1022.86 1023.45 1024.03 1024.58 1025.09 1025.53 1025.92 1026.24 1026.51 1026.74 1026.94 1027.13 1027.31 1027.49 1027.66 1027.81 1027.93 1028.02 1028.08 1028.09 1028.06
1019.52 1018.84 1018.16 1017.55 1017.05 1016.69 1016.48 1016.43 1016.52 1016.73 1017.03 1017.38 1017.77 1018.17 1018.56 1018.95 1019.34 1019.73 1020.15 1020.59 1021.07 1021.58 1022.13 1022.69 1023.25 1023.79 1024.30 1024.76 1025.17 1025.52 1025.82 1026.08 1026.31 1026.52 1026.73 1026.92 1027.11 1027.28 1027.43 1027.55 1027.64 1027.68 1027.69 1027.68
1018.16 1017.56 1017.00 1016.53 1016.20 1016.00 1015.96 1016.05 1016.25 1016.55 1016.90 1017.29 1017.69 1018.09 1018.48 1018.86 1019.24 1019.63 1020.04 1020.48 1020.95 1021.45 1021.97 1022.50 1023.02 1023.51 1023.97 1024.37 1024.73 1025.05 1025.33 1025.59 1025.82 1026.05 1026.26 1026.47 1026.66 1026.84 1026.98 1027.09 1027.17 1027.21 1027.22 1027.23
1016.88 1016.38 1015.96 1015.65 1015.48 1015.45 1015.56 1015.79 1016.10 1016.48 1016.88 1017.30 1017.70 1018.09 1018.46 1018.82 1019.19 1019.56 1019.95 1020.37 1020.82 1021.29 1021.76 1022.24 1022.69 1023.13 1023.52 1023.88 1024.20 1024.49 1024.76 1025.01 1025.26 1025.50 1025.73 1025.95 1026.15 1026.32 1026.46 1026.56 1026.62 1026.66 1026.68 1026.70
1015.78 1015.38 1015.09 1014.93 1014.92 1015.05 1015.29 1015.63 1016.04 1016.47 1016.91 1017.34 1017.74 1018.12 1018.46 1018.80 1019.13 1019.47 1019.84 1020.22 1020.62 1021.03 1021.45 1021.85 1022.24 1022.61 1022.94 1023.25 1023.53 1023.81 1024.07 1024.33 1024.60 1024.86 1025.12 1025.35 1025.56 1025.73 1025.86 1025.95 1026.00 1026.03 1026.06 1026.09
1014.92 1014.61 1014.44 1014.41 1014.52 1014.77 1015.12 1015.54 1016.01 1016.48 1016.94 1017.37 1017.76 1018.11 1018.43 1018.73 1019.03 1019.33 1019.65 1019.98 1020.32 1020.67 1021.01 1021.34 1021.65 1021.94 1022.22 1022.48 1022.73 1022.99 1023.26 1023.55 1023.84 1024.13 1024.41 1024.66 1024.88 1025.05 1025.17 1025.24 1025.29 1025.31 1025.33 1025.38
1014.29 1014.06 1013.98 1014.05 1014.26 1014.59 1015.01 1015.49 1015.98 1016.46 1016.92 1017.33 1017.70 1018.02 1018.31 1018.58 1018.84 1019.10 1019.37 1019.64 1019.92 1020.19 1020.45 1020.70 1020.93 1021.15 1021.37 1021.59 1021.82 1022.07 1022.35 1022.65 1022.97 1023.29 1023.59 1023.86 1024.08 1024.25 1024.37 1024.43 1024.46 1024.47 1024.49 1024.54
1013.86 1013.70 1013.69 1013.84 1014.11 1014.49 1014.94 1015.43 1015.92 1016.39 1016.82 1017.21 1017.55 1017.84 1018.09 1018.33 1018.56 1018.78 1019.00 1019.21 1019.42 1019.62 1019.80 1019.97 1020.13 1020.28 1020.44 1020.62 1020.83 1021.08 1021.36 1021.68 1022.02 1022.35 1022.67 1022.95 1023.18 1023.34 1023.45 1023.49 1023.51 1023.51 1023.52 1023.57
1013.56 1013.47 1013.52 1013.71 1014.02 1014.42 1014.87 1015.35 1015.82 1016.26 1016.66 1017.01 1017.31 1017.57 1017.80 1018.01 1018.20 1018.38 1018.56 1018.73 1018.87 1019.00 1019.11 1019.21 1019.30 1019.39 1019.50 1019.64 1019.83 1020.06 1020.34 1020.66 1021.01 1021.35 1021.68 1021.95 1022.17 1022.32 1022.40 1022.43 1022.43 1022.42 1022.42 1022.47
1013.36 1013.33 1013.43 1013.66 1013.99 1014.39 1014.82 1015.26 1015.69 1016.08 1016.43 1016.74 1017.00 1017.24 1017.44 1017.63 1017.80 1017.96 1018.10 1018.23 1018.33 1018.40 1018.45 1018.48 1018.51 1018.55 1018.61 1018.71 1018.87 1019.08 1019.34 1019.65 1019.98 1020.32 1020.62 1020.88 1021.08 1021.20 1021.26 1021.26 1021.24 1021.21 1021.21 1021.26
1013.22 1013.25 1013.41 1013.66 1014.00 1014.38 1014.78 1015.18 1015.55 1015.89 1016.19 1016.45 1016.69 1016.89 1017.08 1017.25 1017.41 1017.55 1017.67 1017.76 1017.83 1017.86 1017.86 1017.84 1017.82 1017.81 1017.82 1017.88 1018.00 1018.18 1018.41 1018.69 1018.98 1019.28 1019.55 1019.77 1019.93 1020.01 1020.04 1020.01 1019.96 1019.92 1019.91 1019.95
1013.14 1013.24 1013.45 1013.73 1014.06 1014.42 1014.78 1015.13 1015.44 1015.73 1015.98 1016.20 1016.40 1016.58 1016.75 1016.91 1017.06 1017.19 1017.30 1017.37 1017.41 1017.41 1017.38 1017.32 1017.26 1017.20 1017.17 1017.19 1017.26 1017.39 1017.57 1017.79 1018.04 1018.28 1018.49 1018.65 1018.76 1018.79 1018.77 1018.71 1018.64 1018.57 1018.55 1018.60
1013.13 1013.30 1013.56 1013.86 1014.19 1014.52 1014.84 1015.13 1015.39 1015.62 1015.82 1016.01 1016.18 1016.34 1016.50 1016.65 1016.80 1016.92 1017.02 1017.08 1017.10 1017.08 1017.02 1016.93 1016.83 1016.73 1016.66 1016.63 1016.65 1016.71 1016.83 1016.99 1017.16 1017.32 1017.46 1017.56 1017.59 1017.58 1017.51 1017.41 1017.31 1017.22 1017.18 1017.22
1013.22 1013.46 1013.75 1014.06 1014.38 1014.68 1014.96 1015.20 1015.41 1015.60 1015.76 1015.91 1016.05 1016.20 1016.35 1016.50 1016.63 1016.75 1016.84 1016.89 1016.90 1016.85 1016.77 1016.65 1016.52 1016.38 1016.26 1016.18 1016.13 1016.14 1016.18 1016.26 1016.35 1016.43 1016.49 1016.50 1016.47 1016.40 1016.28 1016.14 1016.00 1015.89 1015.84 1015.87
1013.42 1013.71 1014.02 1014.33 1014.63 1014.91 1015.14 1015.34 1015.51 1015.66 1015.79 1015.91 1016.04 1016.17 1016.31 1016.45 1016.58 1016.69 1016.77 1016.80 1016.78 1016.72 1016.61 1016.46 1016.29 1016.11 1015.95 1015.81 1015.71 1015.64 1015.61 1015.60 1015.60 1015.60 1015.57 1015.51 1015.41 1015.28 1015.11 1014.93 1014.77 1014.63 1014.56 1014.57
1013.73 1014.04 1014.36 1014.66 1014.94 1015.18 1015.38 1015.54 1015.68 1015.80 1015.90 1016.01 1016.13 1016.25 1016.38 1016.51 1016.63 1016.72 1016.77 1016.78 1016.74 1016.65 1016.51 1016.33 1016.12 1015.91 1015.70 1015.51 1015.34 1015.21 1015.10 1015.01 1014.93 1014.84 1014.74 1014.61 1014.44 1014.25 1014.04 1013.83 1013.63 1013.47 1013.37 1013.36
1014.12 1014.44 1014.74 1015.02 1015.27 1015.48 1015.64 1015.78 1015.90 1016.00 1016.10 1016.20 1016.31 1016.43 1016.55 1016.67 1016.76 1016.83 1016.86 1016.84 1016.77 1016.64 1016.46 1016.25 1016.00 1015.75 1015.50 1015.26 1015.04 1014.84 1014.66 1014.50 1014.35 1014.18 1014.01 1013.81 1013.59 1013.35 1013.10 1012.85 1012.62 1012.44 1012.32 1012.27
1014.59 1014.88 1015.16 1015.40 1015.61 1015.78 1015.93 1016.05 1016.15 1016.25 1016.35 1016.46 1016.57 1016.69 1016.81 1016.91 1016.98 1017.02 1017.02 1016.96 1016.85 1016.68 1016.47 1016.21 1015.94 1015.65 1015.36 1015.07 1014.81 1014.56 1014.32 1014.10 1013.88 1013.65 1013.41 1013.16 1012.89 1012.60 1012.31 1012.03 1011.78 1011.57 1011.41 1011.33
1015.09 1015.35 1015.58 1015.78 1015.95 1016.10 1016.22 1016.33 1016.44 1016.55 1016.66 1016.78 1016.90 1017.02 1017.13 1017.21 1017.26 1017.27 1017.23 1017.13 1016.98 1016.78 1016.53 1016.25 1015.94 1015.62 1015.30 1014.99 1014.69 1014.40 1014.12 1013.84 1013.57 1013.29 1012.99 1012.69 1012.37 1012.04 1011.71 1011.40 1011.12 1010.87 1010.68 1010.55
Thickness
5648 5654 5655 5653 5654 5655 5648 5643 5636 5640 5642 5650 5652 5654 5656 5656 5655 5653 5652 5652 5651 5650 5649 5648 5647 5646 5645 5643 5641 5640 5637 5635 5632 5630 5628 5626 5624 5622 5620 5618 5617 5615 5613 5611
5644 5652 5651 5647 5650 5650 5649 5647 5643 5642 5642 5653 5653 5652 5651 5650 5650 5648 5647 5646 5646 5645 5643 5642 5641 5640 5638 5636 5635 5633 5630 5627 5625 5623 5621 5619 5617 5615 5613 5611 5609 5607 5605 5603
5627 5639 5643 5635 5645 5647 5646 5646 5645 5638 5644 5649 5647 5648 5648 5647 5647 5645 5643 5642 5640 5639 5638 5637 5636 5634 5631 5630 5628 5625 5623 5620 5618 5615 5613 5611 5610 5608 5605 5603 5601 5599 5598 5596
5618 5625 5618 5637 5651 5651 5646 5646 5647 5646 5647 5646 5647 5647 5646 5646 5644 5641 5640 5638 5636 5634 5632 5631 5629 5628 5625 5623 5620 5618 5616 5614 5611 5609 5606 5604 5601 5599 5597 5596 5594 5591 5589 5588
5608 5609 5617 5634 5646 5646 5640 5638 5645 5642 5642 5642 5641 5638 5637 5641 5640 5638 5636 5634 5632 5630 5627 5624 5623 5621 5618 5615 5613 5611 5609 5607 5605 5603 5600 5597 5594 5592 5590 5588 5586 5583 5581 5580
5605 5605 5606 5628 5645 5649 5640 5629 5642 5640 5637 5634 5632 5622 5626 5634 5634 5632 5630 5628 5625 5623 5620 5618 5615 5614 5611 5607 5605 5604 5603 5601 5599 5597 5594 5591 5588 5585 5583 5581 5578 5576 5573 5571
5602 5600 5609 5631 5641 5641 5621 5625 5637 5636 5634 5630 5627 5627 5628 5628 5626 5625 5623 5621 5618 5615 5613 5611 5609 5607 5603 5600 5599 5598 5597 5594 5592 5590 5587 5584 5581 5578 5575 5573 5570 5568 5565 5563
5596 5596 5607 5633 5632 5625 5626 5632 5633 5631 5629 5626 5624 5623 5622 5621 5618 5616 5613 5612 5610 5607 5604 5603 5602 5600 5596 5593 5592 5591 5589 5587 5585 5583 5580 5578 5573 5570 5568 5565 5562 5559 5556 5554
5603 5609 5622 5627 5628 5631 5629 5626 5627 5625 5623 5620 5617 5615 5613 5611 5609 5607 5605 5603 5601 5599 5596 5594 5593 5592 5588 5587 5585 5583 5581 5579 5577 5575 5573 5570 5566 5563 5559 5557 5554 5551 5549 5546
5602 5610 5618 5621 5622 5624 5623 5622 5622 5620 5617 5614 5610 5607 5604 5602 5599 5597 5596 5594 5592 5591 5588 5586 5585 5584 5582 5580 5578 5576 5573 5571 5569 5567 5564 5562 5559 5557 5553 5550 5547 5545 5542 5540
5597 5606 5610 5614 5616 5616 5616 5615 5614 5612 5610 5608 5604 5599 5596 5593 5590 5588 5587 5585 5584 5582 5581 5579 5577 5575 5574 5573 5571 5567 5565 5563 5561 5559 5557 5554 5552 5549 5548 5546 5544 5541 5538 5535
5597 5605 5602 5605 5610 5611 5609 5607 5605 5604 5601 5600 5598 5593 5589 5585 5583 5581 5579 5577 5575 5574 5573 5571 5570 5568 5567 5566 5563 5560 5557 5554 5552 5551 5549 5546 5544 5541 5539 5538 5537 5535 5533 5530
5608 5610 5606 5608 5607 5606 5604 5602 5600 5598 5595 5592 5589 5587 5583 5578 5576 5573 5571 5569 5568 5566 5565 5563 5562 5560 5559 5558 5556 5553 5550 5548 5546 5544 5542 5540 5537 5534 5531 5529 5528 5526 5524 5522
5607 5605 5601 5602 5600 5601 5599 5596 5594 5591 5589 5586 5582 5579 5576 5572 5569 5566 5564 5563 5561 5559 5557 5555 5554 5552 5551 5550 5549 5546 5543 5542 5539 5537 5535 5533 5531 5529 5526 5522 5518 5516 5514 5513
5602 5601 5599 5598 5595 5593 5591 5588 5584 5581 5579 5576 5574 5571 5568 5565 5562 5560 5558 5556 5553 5551 5549 5547 5545 5543 5542 5541 5540 5538 5536 5534 5532 5530 5528 5527 5524 5522 5518 5515 5511 5509 5506 5504
5595 5594 5593 5590 5588 5586 5583 5580 5577 5574 5571 5569 5566 5564 5562 5559 5556 5553 5551 5548 5545 5542 5541 5539 5537 5535 5534 5532 5531 5529 5527 5528 5526 5524 5521 5519 5516 5514 5511 5508 5504 5501 5499 5497
5587 5586 5584 5582 5581 5580 5578 5575 5573 5569 5565 5563 5561 5558 5554 5551 5547 5545 5543 5541 5539 5536 5533 5531 5529 5528 5526 5524 5522 5520 5518 5518 5518 5516 5514 5511 5509 5507 5504 5501 5498 5495 5493 5491
5589 5588 5585 5582 5579 5575 5573 5570 5567 5564 5560 5558 5556 5551 5547 5543 5540 5538 5536 5533 5530 5528 5526 5524 5522 5520 5518 5516 5514 5512 5510 5509 5508 5507 5506 5504 5501 5500 5497 5494 5491 5488 5486 5484
5585 5583 5581 5579 5576 5572 5569 5565 5563 5559 5556 5553 5549 5545 5542 5538 5535 5531 5528 5524 5522 5519 5518 5516 5515 5512 5510 5508 5506 5504 5502 5501 5499 5498 5497 5496 5493 5490 5488 5486 5483 5481 5478 5476
5579 5578 5576 5573 5571 5567 5563 5560 5557 5554 5551 5547 5543 5538 5534 5530 5527 5523 5520 5517 5515 5514 5512 5510 5507 5504 5502 5500 5499 5496 5494 5492 5490 5489 5487 5485 5483 5480 5479 5477 5475 5473 5471 5469
5570 5570 5569 5566 5563 5561 5558 5554 5551 5547 5544 5541 5537 5532 5528 5523 5520 5516 5512 5509 5508 5506 5505 5503 5499 5497 5495 5493 5491 5488 5485 5484 5482 5480 5478 5476 5474 5472 5470 5468 5466 5465 5464 5462
5561 5560 5559 5557 5554 5551 5549 5547 5544 5541 5536 5533 5530 5525 5520 5516 5512 5509 5506 5504 5502 5500 5497 5494 5492 5490 5488 5486 5482 5479 5477 5475 5473 5471 5469 5468 5465 5463 5461 5459 5458 5457 5456 5454
5551 5551 5550 5548 5546 5543 5541 5538 5536 5533 5529 5526 5522 5518 5514 5510 5506 5502 5499 5497 5495 5494 5490 5487 5486 5484 5482 5477 5474 5472 5469 5467 5465 5463 5462 5460 5458 5455 5453 5452 5450 5449 5448 5446
5542 5541 5541 5539 5536 5533 5531 5529 5527 5525 5522 5519 5515 5512 5508 5503 5499 5497 5495 5492 5490 5486 5483 5480 5478 5477 5474 5469 5466 5464 5462 5460 5458 5456 5454 5452 5450 5448 5446 5444 5443 5442 5440 5439
5534 5532 5531 5529 5526 5525 5523 5521 5518 5515 5512 5509 5506 5504 5501 5498 5494 5490 5487 5484 5482 5478 5475 5473 5471 5468 5465 5462 5459 5457 5455 5453 5451 5449 5447 5445 5442 5440 5439 5437 5436 5434 5433 5433
5525 5523 5523 5522 5520 5518 5515 5512 5509 5506 5503 5499 5497 5494 5491 5489 5486 5482 5479 5476 5473 5470 5467 5464 5462 5459 5456 5454 5452 5450 5448 5446 5444 5442 5440 5438 5436 5434 5432 5431 5429 5428 5427 5426
5515 5514 5513 5511 5510 5508 5506 5504 5501 5499 5496 5493 5489 5486 5483 5480 5477 5473 5470 5467 5464 5461 5458 5456 5453 5451 5449 5447 5445 5443 5441 5439 5437 5435 5434 5432 5430 5428 5427 5425 5423 5422 5421 5420